DW0148 Weather Reports


time (UTC)temp
C
wind
direction
speed
KPH
gust
KPH
rain 1hr
cm
rain 24hr
cm
rain mn
cm
humidity
%
barometer
mb
20260906210659 33 8 1.6 3.2 0.00 0.33 0.00 62 1007.5
20260906210127 33 358 1.6 3.2 0.00 0.33 0.00 59 1007.5
20260906205626 33 250 1.6 1.6 0.00 0.33 0.00 58 1007.5
20260906205054 33 250 0.0 1.6 0.00 0.33 0.00 60 1007.8
20260906204552 33 250 1.6 1.6 0.00 0.33 0.00 61 1007.8
20260906204051 33 250 1.6 1.6 0.00 0.33 0.00 64 1007.8
20260906203550 33 255 0.0 3.2 0.00 0.33 0.00 63 1007.8
20260906203049 33 255 0.0 6.4 0.00 0.33 0.00 66 1007.8
20260906202547 33 255 0.0 6.4 0.00 0.33 0.00 62 1007.8
20260906202046 33 203 0.0 6.4 0.00 0.33 0.00 65 1007.8
20260906201514 33 159 3.2 6.4 0.00 0.33 0.00 61 1007.8
20260906201013 34 168 3.2 3.2 0.00 0.33 0.00 60 1007.8
20260906200512 33 219 0.0 3.2 0.00 0.33 0.00 64 1008.1
20260906200010 33 219 1.6 3.2 0.00 0.33 0.00 62 1008.1
20260906195509 33 238 1.6 3.2 0.00 0.33 0.00 62 1008.5
20260906195008 33 259 1.6 3.2 0.00 0.33 0.00 66 1008.5
20260906194507 33 53 1.6 4.8 0.00 0.33 0.00 63 1008.5
20260906193935 33 151 1.6 4.8 0.00 0.33 0.00 66 1008.5
20260906193433 33 207 0.0 4.8 0.00 0.33 0.00 66 1008.5
20260906192933 33 205 1.6 3.2 0.00 0.33 0.00 67 1008.8
20260906192432 33 258 1.6 3.2 0.00 0.33 0.00 69 1008.8
20260906191828 33 202 1.6 3.2 0.00 0.33 0.00 65 1008.8
20260906191327 33 248 1.6 3.2 0.00 0.33 0.00 66 1009.1
20260906190826 33 246 1.6 3.2 0.00 0.33 0.00 70 1009.1
20260906190325 33 169 1.6 4.8 0.00 0.33 0.00 67 1009.1
20260906185825 33 154 1.6 4.8 0.00 0.36 0.00 63 1009.5
20260906185252 33 12 1.6 4.8 0.00 0.41 0.00 64 1009.5
20260906184751 33 38 3.2 4.8 0.00 0.56 0.00 66 1009.5
20260906184249 33 236 1.6 3.2 0.00 0.79 0.00 64 1009.5
20260906183748 32 246 0.0 3.2 0.00 1.12 0.00 68 1009.5
20260906183247 32 245 1.6 3.2 0.00 1.40 0.00 69 1009.5
20260906182745 32 184 1.6 4.8 0.00 1.73 0.00 67 1009.8
20260906182244 32 259 1.6 4.8 0.00 1.98 0.00 69 1009.8
20260906181743 32 145 1.6 4.8 0.00 2.01 0.00 70 1009.8
20260906181241 32 160 1.6 4.8 0.00 2.01 0.00 73 1009.8
20260906180741 32 170 1.6 3.2 0.00 2.01 0.00 70 1010.2
20260906180240 31 75 1.6 3.2 0.00 2.01 0.00 71 1010.2
20260906175738 31 246 0.0 3.2 0.00 2.01 0.00 74 1010.2
20260906175238 31 153 1.6 3.2 0.00 2.01 0.00 75 1010.2
20260906174706 31 68 1.6 4.8 0.00 2.01 0.00 73 1010.2
20260906174205 31 163 1.6 4.8 0.00 2.01 0.00 75 1010.5
20260906173704 30 174 1.6 3.2 0.00 2.01 0.00 76 1010.5
20260906173203 30 188 1.6 3.2 0.00 2.01 0.00 77 1010.5
20260906172629 31 222 1.6 3.2 0.00 2.01 0.00 80 1010.5
20260906172128 31 213 1.6 3.2 0.00 2.01 0.00 76 1010.5
20260906171626 31 124 1.6 4.8 0.00 2.01 0.00 79 1010.5
20260906171124 30 84 1.6 4.8 0.00 2.01 0.00 80 1010.5
20260906170623 30 359 1.6 4.8 0.00 2.01 0.00 81 1010.8
20260906170122 29 172 1.6 4.8 0.00 2.01 0.00 85 1010.8
20260906165620 29 168 1.6 4.8 0.00 2.01 0.00 89 1010.8
20260906165119 29 198 1.6 4.8 0.00 2.01 0.00 92 1010.8
20260906164618 28 252 1.6 4.8 0.00 2.01 0.00 93 1011.2
20260906164117 28 166 3.2 4.8 0.00 2.01 0.00 94 1011.2
20260906163615 28 238 1.6 3.2 0.00 2.01 0.00 95 1011.2
20260906163042 28 242 1.6 3.2 0.00 2.01 0.00 94 1011.2
20260906162542 28 184 1.6 3.2 0.00 2.01 0.00 94 1011.2
20260906162040 28 230 1.6 4.8 0.00 2.01 0.00 94 1011.2
20260906161539 27 247 1.6 4.8 0.00 2.01 0.00 94 1011.2
20260906161038 28 265 1.6 6.4 0.00 2.01 0.00 94 1011.2
20260906160537 27 181 1.6 6.4 0.00 2.01 0.00 94 1011.2
20260906155933 27 104 1.6 6.4 0.00 2.01 2.01 94 1011.2
20260906155329 27 297 1.6 1.6 0.00 2.01 2.01 94 1011.2
20260906154828 27 135 1.6 4.8 0.00 2.01 2.01 94 1011.5
20260906154327 27 279 1.6 4.8 0.00 2.01 2.01 95 1011.5
20260906153825 27 97 0.0 4.8 0.00 2.01 2.01 95 1011.2
20260906153324 27 160 3.2 4.8 0.00 2.01 2.01 94 1011.5
20260906152823 27 181 0.0 1.6 0.00 2.01 2.01 95 1011.5
20260906152321 26 189 1.6 3.2 0.00 2.01 2.01 95 1011.5
20260906151820 26 23 1.6 4.8 0.00 2.01 2.01 95 1011.5
20260906151318 26 23 0.0 4.8 0.00 2.01 2.01 95 1011.5
20260906150817 26 23 1.6 4.8 0.00 2.01 2.01 94 1011.5
20260906150316 26 46 3.2 6.4 0.00 2.01 2.01 95 1011.5
20260906145815 26 146 0.0 6.4 0.00 2.01 2.01 95 1011.5
20260906145314 26 76 1.6 4.8 0.00 2.01 2.01 95 1011.5
20260906144813 25 84 1.6 3.2 0.00 2.01 2.01 95 1011.5
20260906144209 25 48 0.0 4.8 0.00 2.01 2.01 96 1011.9
20260906143708 25 36 1.6 4.8 0.00 2.01 2.01 96 1011.9
20260906143206 25 17 1.6 4.8 0.00 2.01 2.01 96 1011.9
20260906142705 25 11 3.2 4.8 0.00 2.01 2.01 96 1011.9
20260906142204 25 20 1.6 3.2 0.00 2.01 2.01 95 1011.9
20260906141701 25 9 1.6 3.2 0.00 2.01 2.01 95 1011.9
20260906141159 25 72 1.6 3.2 0.00 2.01 2.01 95 1011.9
20260906140658 24 82 1.6 3.2 0.00 2.01 2.01 95 1011.9
20260906140157 24 78 3.2 3.2 0.00 2.01 2.01 95 1011.9
20260906135625 24 7 1.6 1.6 0.00 2.01 2.01 95 1011.9
20260906135124 24 359 1.6 1.6 0.00 2.01 2.01 96 1011.9
20260906134552 23 22 1.6 1.6 0.00 2.01 2.01 96 1011.9
20260906134051 23 22 1.6 3.2 0.00 2.01 2.01 96 1011.9
20260906133519 23 22 1.6 3.2 0.00 2.01 2.01 96 1011.9
20260906133017 23 22 1.6 3.2 0.00 2.01 2.01 96 1011.9
20260906132516 22 22 1.6 3.2 0.00 2.01 2.01 96 1011.9
20260906132014 22 18 1.6 3.2 0.00 2.01 2.01 96 1011.9
20260906131513 22 25 1.6 3.2 0.00 2.01 2.01 96 1011.9
20260906131010 22 16 1.6 3.2 0.00 2.01 2.01 96 1011.9
20260906130508 22 103 1.6 1.6 0.00 2.01 2.01 96 1011.9
20260906130007 22 103 0.0 1.6 0.00 2.01 2.01 96 1011.9
20260906125506 22 103 0.0 1.6 0.00 2.01 2.01 96 1011.9
20260906125005 21 103 0.0 1.6 0.00 2.01 2.01 96 1011.9
20260906124504 21 103 0.0 0.0 0.00 2.01 2.01 96 1011.9
20260906124002 21 103 0.0 0.0 0.00 2.01 2.01 96 1011.9
20260906123500 21 103 0.0 0.0 0.00 2.01 2.01 96 1011.9
20260906122927 21 103 0.0 0.0 0.00 2.01 2.01 96 1011.9
20260906122426 21 103 0.0 1.6 0.00 2.01 2.01 96 1011.9
20260906121925 21 103 0.0 1.6 0.00 2.01 2.01 96 1011.5
20260906121424 21 103 0.0 1.6 0.00 2.01 2.01 96 1011.2
20260906120922 20 103 0.0 1.6 0.00 2.01 2.01 96 1011.5
20260906120420 20 103 1.6 1.6 0.00 2.01 2.01 96 1011.5
20260906115919 20 103 0.0 0.0 0.00 2.01 2.01 96 1011.2
20260906115347 20 103 0.0 0.0 0.00 2.01 2.01 96 1011.2
20260906114744 20 103 0.0 0.0 0.00 2.01 2.01 96 1011.2
20260906114242 20 103 0.0 0.0 0.00 2.01 2.01 96 1011.2
20260906113741 20 103 0.0 0.0 0.00 2.01 2.01 96 1011.2
20260906113239 20 103 0.0 0.0 0.00 2.01 2.01 96 1011.2
20260906112737 20 103 0.0 0.0 0.00 2.01 2.01 96 1011.2
20260906112236 20 103 0.0 0.0 0.00 2.01 2.01 96 1010.8
20260906111703 20 103 0.0 1.6 0.00 2.01 2.01 96 1010.8
20260906111202 20 103 0.0 1.6 0.00 2.01 2.01 96 1010.8
20260906110701 20 103 0.0 1.6 0.00 2.01 2.01 96 1010.8
20260906110128 20 103 0.0 0.0 0.00 2.01 2.01 96 1010.8
20260906105628 20 103 0.0 0.0 0.00 2.01 2.01 96 1010.8
20260906105055 20 103 0.0 0.0 0.00 2.01 2.01 96 1010.5
20260906104554 20 103 0.0 0.0 0.00 2.01 2.01 96 1010.5
20260906104053 20 103 0.0 1.6 0.00 2.01 2.01 96 1010.5
20260906103520 20 103 0.0 1.6 0.00 2.01 2.01 96 1010.2
20260906103019 20 103 0.0 3.2 0.00 2.01 2.01 96 1010.2
20260906102518 20 103 1.6 3.2 0.00 2.01 2.01 96 1010.2
20260906102017 20 111 1.6 3.2 0.00 2.01 2.01 96 1010.2
20260906101516 20 108 1.6 1.6 0.00 2.01 2.01 96 1010.2
20260906101015 20 109 0.0 1.6 0.00 2.01 2.01 96 1010.2
20260906100514 20 101 0.0 1.6 0.00 2.01 2.01 96 1010.2
20260906100013 20 101 0.0 1.6 0.00 2.01 2.01 96 1010.2
20260906095512 20 98 0.0 1.6 0.00 2.01 2.01 96 1010.2
20260906094940 20 101 1.6 1.6 0.00 2.01 2.01 96 1009.8
20260906094439 20 102 0.0 3.2 0.00 2.01 2.01 96 1009.8
20260906093907 20 102 1.6 3.2 0.00 2.01 2.01 96 1009.8
20260906093333 20 115 0.0 1.6 0.00 2.01 2.01 96 1009.8
20260906092801 20 118 1.6 1.6 0.00 2.01 2.01 96 1009.8
20260906092259 20 112 1.6 1.6 0.00 2.01 2.01 96 1009.8
20260906091758 20 145 0.0 1.6 0.00 2.01 2.01 96 1009.8
20260906091257 20 145 0.0 1.6 0.00 2.01 2.01 96 1009.8
20260906090756 20 138 0.0 1.6 0.00 2.01 2.01 96 1009.8
20260906090255 20 137 1.6 1.6 0.00 2.01 2.01 96 1009.8
20260906085723 20 138 1.6 1.6 0.00 2.01 2.01 96 1009.8
20260906085222 21 138 0.0 1.6 0.00 2.01 2.01 96 1009.8
20260906084720 21 137 0.0 1.6 0.00 2.01 2.01 96 1009.8
20260906084219 21 137 1.6 1.6 0.00 2.01 2.01 96 1010.2
20260906083718 21 136 0.0 3.2 0.03 2.01 2.01 96 1010.2
20260906083217 21 137 1.6 3.2 0.03 2.01 2.01 96 1010.2
20260906082716 21 142 1.6 3.2 0.05 2.01 2.01 96 1010.5
20260906082215 21 129 1.6 3.2 0.08 2.01 2.01 96 1010.5
20260906081713 21 141 1.6 3.2 0.10 2.01 2.01 96 1010.5
20260906081212 21 105 1.6 3.2 0.20 2.01 2.01 96 1010.5
20260906080711 21 104 1.6 4.8 0.30 2.01 2.01 96 1010.2
20260906080210 21 131 0.0 8.0 0.33 2.01 2.01 96 1010.2
20260906075709 21 211 1.6 8.0 0.33 2.01 2.01 96 1010.2
20260906075207 21 231 1.6 8.0 0.33 2.01 2.01 96 1010.2
20260906074706 22 200 4.8 8.0 0.33 2.01 2.01 96 1010.5
20260906074205 22 187 0.0 1.6 0.33 2.01 2.01 96 1010.5
20260906073704 22 176 0.0 1.6 0.30 1.98 1.98 96 1011.2
20260906073203 22 176 0.0 1.6 0.28 1.96 1.96 96 1011.2
20260906072701 22 146 0.0 1.6 0.28 1.96 1.96 96 1011.2
20260906072200 23 180 0.0 0.0 0.25 1.93 1.93 96 1011.5
20260906071659 23 181 0.0 0.0 0.23 1.91 1.91 96 1011.5
20260906071126 23 184 0.0 0.0 0.13 1.80 1.80 96 1010.8
20260906070625 23 162 0.0 0.0 0.03 1.70 1.70 96 1010.8
20260906070051 22 166 0.0 0.0 0.00 1.68 1.68 96 1010.8
20260906065550 22 161 0.0 0.0 0.00 1.68 1.68 96 1010.8
20260906065049 22 105 0.0 0.0 0.00 1.68 1.68 96 1010.5
20260906064549 22 113 0.0 0.0 0.00 1.68 1.68 96 1010.2
20260906064015 22 113 0.0 0.0 0.00 1.68 1.68 96 1010.2
20260906063514 22 113 0.0 0.0 0.00 1.68 1.68 96 1010.2
20260906062941 22 113 0.0 0.0 0.00 1.68 1.68 96 1010.2
20260906062440 22 113 0.0 1.6 0.00 1.68 1.68 96 1010.2
20260906061939 22 113 0.0 1.6 0.00 1.68 1.68 96 1010.2
20260906061438 22 113 0.0 1.6 0.00 1.68 1.68 96 1010.2
20260906060937 22 110 1.6 1.6 0.00 1.68 1.68 96 1010.2
20260906060436 22 120 0.0 0.0 0.00 1.68 1.68 96 1010.5
20260906055935 22 118 0.0 0.0 0.00 1.68 1.68 96 1010.5
20260906055434 22 118 0.0 0.0 0.00 1.68 1.68 96 1010.2
20260906054933 22 119 0.0 0.0 0.00 1.68 1.68 96 1010.2
20260906054432 22 118 0.0 0.0 0.00 1.68 1.68 96 1010.2
20260906053858 22 118 0.0 0.0 0.00 1.68 1.68 96 1010.5
20260906053357 22 118 0.0 0.0 0.00 1.68 1.68 96 1010.5
20260906052856 22 118 0.0 0.0 0.00 1.68 1.68 96 1010.8
20260906052355 22 118 0.0 0.0 0.00 1.68 1.68 96 1010.8
20260906051854 22 119 0.0 0.0 0.00 1.68 1.68 96 1010.8
20260906051353 22 118 0.0 0.0 0.00 1.68 1.68 96 1010.5
20260906050820 22 118 0.0 0.0 0.00 1.68 1.68 96 1010.5
20260906050319 22 118 0.0 0.0 0.00 1.68 1.68 96 1010.5
20260906045818 22 118 0.0 0.0 0.00 1.68 1.68 96 1010.8
20260906045316 22 118 0.0 0.0 0.00 1.68 1.68 96 1010.8
20260906044815 22 118 0.0 0.0 0.00 1.68 1.68 96 1010.8
20260906044243 22 115 0.0 0.0 0.00 1.68 1.68 96 1010.8
20260906043711 22 115 0.0 0.0 0.00 1.68 1.68 96 1010.8
20260906043210 22 115 0.0 0.0 0.00 1.68 1.68 96 1011.2
20260906042637 22 115 0.0 0.0 0.00 1.68 1.68 96 1011.2
20260906042136 22 115 0.0 0.0 0.00 1.68 1.68 96 1011.2
20260906041635 22 115 0.0 0.0 0.00 1.68 1.68 96 1011.2
20260906041133 22 116 0.0 0.0 0.00 1.68 1.68 96 1010.8
20260906040631 22 115 0.0 0.0 0.00 1.68 1.68 96 1011.2
20260906040129 22 115 0.0 0.0 0.00 1.68 1.68 96 1011.2
20260906035628 22 115 0.0 0.0 0.00 1.68 1.68 96 1011.2
20260906035127 22 115 0.0 0.0 0.00 1.68 1.68 96 1010.8
20260906034626 22 115 0.0 0.0 0.00 1.68 1.68 96 1010.8
20260906034125 22 115 0.0 0.0 0.00 1.68 1.68 96 1011.2
20260906033553 22 115 0.0 0.0 0.00 1.68 1.68 96 1011.2
20260906033051 22 115 0.0 0.0 0.00 1.68 1.68 96 1011.2
20260906032550 22 115 0.0 0.0 0.00 1.68 1.68 96 1011.2
20260906032049 22 115 0.0 0.0 0.00 1.68 1.68 96 1011.2
20260906031517 22 115 0.0 0.0 0.00 1.68 1.68 96 1011.2
20260906030944 22 113 0.0 0.0 0.00 1.68 1.68 96 1011.2
20260906030442 22 113 0.0 0.0 0.00 1.68 1.68 96 1011.2
20260906025941 22 113 0.0 0.0 0.00 1.68 1.68 96 1010.8
20260906025440 22 113 0.0 0.0 0.00 1.68 1.68 96 1010.8
20260906024938 22 113 0.0 0.0 0.00 1.68 1.68 96 1010.8
20260906024333 22 113 0.0 0.0 0.00 1.68 1.68 96 1010.8
20260906023800 22 113 0.0 0.0 0.00 1.68 1.68 96 1010.5
20260906023259 22 113 0.0 0.0 0.00 1.68 1.68 96 1010.5
20260906022756 22 113 0.0 0.0 0.00 1.68 1.68 96 1010.5
20260906022255 22 113 0.0 0.0 0.00 1.68 1.68 96 1010.5
20260906021722 22 113 0.0 0.0 0.00 1.68 1.68 95 1010.2
20260906021149 22 113 0.0 0.0 0.00 1.68 1.68 95 1010.2
20260906020648 22 113 0.0 0.0 0.00 1.68 1.68 95 1010.2
20260906020147 22 113 0.0 0.0 0.00 1.68 1.68 95 1010.2
20260906015645 22 113 0.0 0.0 0.00 1.68 1.68 95 1010.2
20260906015144 22 113 0.0 0.0 0.00 1.68 1.68 95 1010.2
20260906014643 22 113 0.0 0.0 0.00 1.68 1.68 95 1010.2
20260906014142 22 111 0.0 0.0 0.00 1.68 1.68 95 1010.2
20260906013642 22 111 0.0 0.0 0.00 1.68 1.68 95 1009.8
20260906013141 22 111 0.0 0.0 0.00 1.68 1.68 95 1009.8
20260906012640 22 111 0.0 0.0 0.00 1.68 1.68 95 1009.8
20260906012138 22 112 0.0 0.0 0.00 1.68 1.68 95 1009.8
20260906011637 22 112 0.0 0.0 0.00 1.68 1.68 95 1009.8
20260906011136 22 111 0.0 0.0 0.00 1.68 1.68 95 1010.2
20260906010635 22 111 0.0 0.0 0.00 1.68 1.68 95 1010.2
20260906010134 22 111 0.0 0.0 0.00 1.68 1.68 95 1010.2
20260906005601 22 105 0.0 0.0 0.00 1.68 1.68 95 1010.2
20260906005100 22 103 0.0 0.0 0.00 1.68 1.68 95 1010.2
20260906004559 22 100 0.0 0.0 0.00 1.68 1.68 95 1010.2
20260906004028 23 100 0.0 0.0 0.00 1.68 1.68 95 1010.2
20260906003527 23 100 0.0 0.0 0.00 1.68 1.68 95 1009.8
20260906003025 23 100 0.0 0.0 0.00 1.68 1.68 95 1010.2
20260906002453 23 100 0.0 0.0 0.00 1.68 1.68 95 1010.2
20260906001952 23 100 0.0 0.0 0.00 1.68 1.68 95 1010.2
20260906001451 23 101 0.0 0.0 0.00 1.68 1.68 95 1010.2
20260906000950 23 98 0.0 0.0 0.00 1.68 1.68 95 1010.2
20260906000448 23 99 0.0 0.0 0.00 1.68 1.68 95 1010.2
20260905235946 23 99 0.0 0.0 0.00 1.68 1.68 95 1010.2
20260905235445 23 98 0.0 1.6 0.00 1.68 1.68 95 1010.2
20260905234944 24 99 0.0 1.6 0.00 1.68 1.68 95 1010.2
20260905234443 24 98 0.0 1.6 0.00 1.68 1.68 95 1010.2
20260905233942 24 219 0.0 1.6 0.00 1.68 1.68 95 1010.2
20260905233441 24 215 0.0 0.0 0.00 1.68 1.68 95 1010.2
20260905232940 24 215 0.0 0.0 0.00 1.68 1.68 95 1009.8
20260905232439 24 215 0.0 0.0 0.00 1.68 1.68 95 1009.8
20260905231938 24 215 0.0 1.6 0.00 1.68 1.68 95 1009.8
20260905231406 24 216 0.0 1.6 0.00 1.68 1.68 95 1009.8
20260905230905 24 215 0.0 1.6 0.00 1.68 1.68 95 1009.8
20260905230403 24 215 0.0 1.6 0.00 1.68 1.68 95 1009.8
20260905225902 24 224 1.6 1.6 0.00 1.68 1.68 95 1009.8
20260905225330 24 82 0.0 0.0 0.00 1.68 1.68 95 1009.8
20260905224829 25 82 0.0 0.0 0.00 1.68 1.68 95 1009.5
20260905224329 25 82 0.0 0.0 0.00 1.68 1.68 95 1009.8
20260905223826 25 82 0.0 0.0 0.00 1.68 1.68 95 1009.8
20260905223254 24 82 0.0 1.6 0.00 1.68 1.68 95 1009.8
20260905222752 24 82 0.0 1.6 0.00 1.68 1.68 95 1009.8
20260905222249 24 82 0.0 1.6 0.00 1.68 1.68 95 1009.8
20260905221748 24 82 0.0 0.0 0.00 1.68 1.68 95 1009.8
20260905221216 24 77 0.0 0.0 0.00 1.68 1.68 95 1009.8
20260905220715 24 77 0.0 0.0 0.00 1.68 1.68 95 1009.8
20260905220214 24 76 0.0 0.0 0.00 1.68 1.68 95 1009.8
20260905215712 24 77 0.0 0.0 0.00 1.68 1.68 95 1009.8
20260905215108 24 76 0.0 0.0 0.00 1.68 1.68 95 1009.8
20260905214606 24 77 0.0 0.0 0.00 1.68 1.68 95 1009.8
20260905214104 24 76 0.0 0.0 0.00 1.68 1.68 95 1010.2
20260905213603 24 77 0.0 0.0 0.00 1.68 1.68 95 1010.2
20260905213102 24 76 0.0 0.0 0.00 1.68 1.68 95 1009.8
20260905212530 23 77 0.0 1.6 0.00 1.68 1.68 95 1009.8
20260905212029 23 77 0.0 1.6 0.00 1.68 1.68 95 1010.2
20260905211528 22 77 0.0 1.6 0.00 1.68 1.68 95 1009.8
20260905211028 22 77 1.6 1.6 0.00 1.68 1.68 95 1010.2